owner,sensor,date,latitude,longitude,vertical_datum,sea_water_temperature,qcFlag
BP,ioos:station:wmo:42369:4,2021-08-01T00:00:00Z,27.2166,-90.2841,1342.0,4.3,11113222
BP,ioos:station:wmo:42369:4,2021-08-01T00:20:00Z,27.2167,-90.2841,1342.0,4.3,11113222
BP,ioos:station:wmo:42369:4,2021-08-01T00:40:00Z,27.2167,-90.2841,1342.0,4.3,11113222
BP,ioos:station:wmo:42369:4,2021-08-01T01:00:00Z,27.2166,-90.2842,1342.0,4.3,11113222
BP,ioos:station:wmo:42369:4,2021-08-01T01:20:00Z,27.2166,-90.2842,1342.0,4.3,11113222
BP,ioos:station:wmo:42369:4,2021-08-01T01:40:00Z,27.2165,-90.2843,1342.0,4.3,11113222
BP,ioos:station:wmo:42369:4,2021-08-01T02:00:00Z,27.2165,-90.2845,1342.0,4.3,11113222
BP,ioos:station:wmo:42369:4,2021-08-01T02:20:00Z,27.2164,-90.2846,1342.0,4.3,11113222
BP,ioos:station:wmo:42369:4,2021-08-01T02:40:00Z,27.2164,-90.2848,1342.0,4.3,11113222
BP,ioos:station:wmo:42369:4,2021-08-01T03:00:00Z,27.2164,-90.2850,1342.0,4.3,11113222
BP,ioos:station:wmo:42369:4,2021-08-01T03:20:00Z,27.2164,-90.2851,1342.0,4.3,11113222
BP,ioos:station:wmo:42369:4,2021-08-01T03:40:00Z,27.2164,-90.2851,1342.0,4.3,11113222
BP,ioos:station:wmo:42369:4,2021-08-01T04:00:00Z,27.2164,-90.2851,1342.0,4.3,11113222
BP,ioos:station:wmo:42369:4,2021-08-01T04:20:00Z,27.2164,-90.2851,1342.0,4.3,11113222
BP,ioos:station:wmo:42369:4,2021-08-01T04:40:00Z,27.2164,-90.2853,1342.0,4.3,11113222
BP,ioos:station:wmo:42369:4,2021-08-01T05:00:00Z,27.2164,-90.2853,1342.0,4.3,11113222
BP,ioos:station:wmo:42369:4,2021-08-01T05:20:00Z,27.2164,-90.2853,1342.0,4.3,11113222
BP,ioos:station:wmo:42369:4,2021-08-01T05:40:00Z,27.2164,-90.2854,1342.0,4.3,11113222
BP,ioos:station:wmo:42369:4,2021-08-01T06:00:00Z,27.2164,-90.2854,1342.0,4.3,11113222
BP,ioos:station:wmo:42369:4,2021-08-01T06:20:00Z,27.2164,-90.2854,1342.0,4.3,11113222
BP,ioos:station:wmo:42369:4,2021-08-01T06:40:00Z,27.2164,-90.2854,1342.0,4.3,11113222
BP,ioos:station:wmo:42369:4,2021-08-01T07:00:00Z,27.2164,-90.2854,1342.0,4.3,11113222
BP,ioos:station:wmo:42369:4,2021-08-01T07:20:00Z,27.2164,-90.2855,1342.0,4.3,11113222
BP,ioos:station:wmo:42369:4,2021-08-01T07:40:00Z,27.2164,-90.2855,1342.0,4.3,11113222
BP,ioos:station:wmo:42369:4,2021-08-01T08:00:00Z,27.2164,-90.2855,1342.0,4.3,11113222
BP,ioos:station:wmo:42369:4,2021-08-01T08:20:00Z,27.2164,-90.2855,1342.0,4.3,11113222
BP,ioos:station:wmo:42369:4,2021-08-01T08:40:00Z,27.2164,-90.2856,1342.0,4.3,11113222
BP,ioos:station:wmo:42369:4,2021-08-01T09:00:00Z,27.2164,-90.2856,1342.0,4.3,11113222
BP,ioos:station:wmo:42369:4,2021-08-01T09:20:00Z,27.2164,-90.2856,1342.0,4.3,11113222
BP,ioos:station:wmo:42369:4,2021-08-01T09:40:00Z,27.2164,-90.2856,1342.0,4.3,11113222
BP,ioos:station:wmo:42369:4,2021-08-01T10:00:00Z,27.2163,-90.2858,1342.0,4.3,11113222
BP,ioos:station:wmo:42369:4,2021-08-01T10:20:00Z,27.2163,-90.2858,1342.0,4.3,11113222
BP,ioos:station:wmo:42369:4,2021-08-01T10:40:00Z,27.2163,-90.2859,1342.0,4.3,11113222
BP,ioos:station:wmo:42369:4,2021-08-01T11:00:00Z,27.2163,-90.2859,1342.0,4.3,11113222
BP,ioos:station:wmo:42369:4,2021-08-01T11:20:00Z,27.2163,-90.2860,1342.0,4.3,11113222
BP,ioos:station:wmo:42369:4,2021-08-01T11:40:00Z,27.2163,-90.2861,1342.0,4.3,11113222
BP,ioos:station:wmo:42369:4,2021-08-01T12:00:00Z,27.2163,-90.2861,1342.0,4.3,11113222
BP,ioos:station:wmo:42369:4,2021-08-01T12:20:00Z,27.2163,-90.2862,1342.0,4.3,11113222
BP,ioos:station:wmo:42369:4,2021-08-01T12:40:00Z,27.2163,-90.2862,1342.0,4.3,11113222
BP,ioos:station:wmo:42369:4,2021-08-01T13:00:00Z,27.2163,-90.2862,1342.0,4.3,11113222
BP,ioos:station:wmo:42369:4,2021-08-01T13:20:00Z,27.2163,-90.2864,1342.0,4.3,11113222
BP,ioos:station:wmo:42369:4,2021-08-01T13:40:00Z,27.2163,-90.2864,1342.0,4.3,11113222
BP,ioos:station:wmo:42369:4,2021-08-01T14:00:00Z,27.2163,-90.2864,1342.0,4.3,11113222
BP,ioos:station:wmo:42369:4,2021-08-01T14:20:00Z,27.2163,-90.2864,1342.0,4.3,11113222
BP,ioos:station:wmo:42369:4,2021-08-01T14:40:00Z,27.2163,-90.2864,1342.0,4.3,11113222
BP,ioos:station:wmo:42369:4,2021-08-01T15:00:00Z,27.2163,-90.2864,1342.0,4.3,11113222
BP,ioos:station:wmo:42369:4,2021-08-01T15:20:00Z,27.2163,-90.2865,1342.0,4.3,11113222
BP,ioos:station:wmo:42369:4,2021-08-01T15:40:00Z,27.2163,-90.2865,1342.0,4.3,11113222
BP,ioos:station:wmo:42369:4,2021-08-01T16:00:00Z,27.2163,-90.2866,1342.0,4.3,11113222
BP,ioos:station:wmo:42369:4,2021-08-01T16:20:00Z,27.2163,-90.2866,1342.0,4.3,11113222
BP,ioos:station:wmo:42369:4,2021-08-01T16:40:00Z,27.2163,-90.2866,1342.0,4.3,11113222
BP,ioos:station:wmo:42369:4,2021-08-01T17:00:00Z,27.2163,-90.2865,1342.0,4.3,11113222
BP,ioos:station:wmo:42369:4,2021-08-01T17:20:00Z,27.2164,-90.2865,1342.0,4.3,11113222
BP,ioos:station:wmo:42369:4,2021-08-01T17:40:00Z,27.2161,-90.2871,1342.0,4.3,11113222
BP,ioos:station:wmo:42369:4,2021-08-01T18:00:00Z,27.2158,-90.2875,1342.0,4.3,11113222
BP,ioos:station:wmo:42369:4,2021-08-01T18:20:00Z,27.2158,-90.2875,1342.0,4.3,11113222
BP,ioos:station:wmo:42369:4,2021-08-01T18:40:00Z,27.2157,-90.2879,1342.0,4.3,11113222
BP,ioos:station:wmo:42369:4,2021-08-01T19:00:00Z,27.2156,-90.2879,1342.0,4.3,11113222
BP,ioos:station:wmo:42369:4,2021-08-01T19:20:00Z,27.2156,-90.2879,1342.0,4.3,11113222
BP,ioos:station:wmo:42369:4,2021-08-01T19:40:00Z,27.2156,-90.2881,1342.0,4.3,11113222
BP,ioos:station:wmo:42369:4,2021-08-01T20:00:00Z,27.2155,-90.2882,1342.0,4.3,11113222
BP,ioos:station:wmo:42369:4,2021-08-01T20:20:00Z,27.2155,-90.2883,1342.0,4.3,11113222
BP,ioos:station:wmo:42369:4,2021-08-01T20:40:00Z,27.2155,-90.2883,1342.0,4.3,11113222
BP,ioos:station:wmo:42369:4,2021-08-01T21:00:00Z,27.2154,-90.2884,1342.0,4.3,11113222
BP,ioos:station:wmo:42369:4,2021-08-01T21:20:00Z,27.2154,-90.2884,1342.0,4.3,11113222
BP,ioos:station:wmo:42369:4,2021-08-01T21:40:00Z,27.2154,-90.2884,1342.0,4.3,11113222
BP,ioos:station:wmo:42369:4,2021-08-01T22:00:00Z,27.2153,-90.2886,1342.0,4.3,11113222
BP,ioos:station:wmo:42369:4,2021-08-01T22:20:00Z,27.2153,-90.2886,1342.0,4.3,11113222
BP,ioos:station:wmo:42369:4,2021-08-01T22:40:00Z,27.2153,-90.2886,1342.0,4.3,11113222
BP,ioos:station:wmo:42369:4,2021-08-01T23:00:00Z,27.2153,-90.2886,1342.0,4.3,11113222
BP,ioos:station:wmo:42369:4,2021-08-01T23:20:00Z,27.2153,-90.2887,1342.0,4.3,11113222
BP,ioos:station:wmo:42369:4,2021-08-01T23:40:00Z,27.2153,-90.2887,1342.0,4.3,11113222
BP,ioos:station:wmo:42369:4,2021-08-02T00:00:00Z,27.2152,-90.2887,1342.0,4.3,11113222
BP,ioos:station:wmo:42369:4,2021-08-02T00:20:00Z,27.2152,-90.2887,1342.0,4.3,11113222
BP,ioos:station:wmo:42369:4,2021-08-02T00:40:00Z,27.2152,-90.2887,1342.0,4.3,11113222
BP,ioos:station:wmo:42369:4,2021-08-02T01:00:00Z,27.2152,-90.2887,1342.0,4.3,11113222
BP,ioos:station:wmo:42369:4,2021-08-02T01:20:00Z,27.2152,-90.2888,1342.0,4.3,11113222
BP,ioos:station:wmo:42369:4,2021-08-02T01:40:00Z,27.2152,-90.2888,1342.0,4.3,11113222
BP,ioos:station:wmo:42369:4,2021-08-02T02:00:00Z,27.2152,-90.2888,1342.0,4.3,11113222
BP,ioos:station:wmo:42369:4,2021-08-02T02:20:00Z,27.2153,-90.2889,1342.0,4.3,11113222
BP,ioos:station:wmo:42369:4,2021-08-02T02:40:00Z,27.2153,-90.2889,1342.0,4.3,11113222
BP,ioos:station:wmo:42369:4,2021-08-02T03:00:00Z,27.2153,-90.2889,1342.0,4.3,11113222
BP,ioos:station:wmo:42369:4,2021-08-02T03:20:00Z,27.2153,-90.2889,1342.0,4.3,11113222
BP,ioos:station:wmo:42369:4,2021-08-02T03:40:00Z,27.2153,-90.2890,1342.0,4.3,11113222
BP,ioos:station:wmo:42369:4,2021-08-02T04:00:00Z,27.2153,-90.2889,1342.0,4.3,11113222
BP,ioos:station:wmo:42369:4,2021-08-02T04:20:00Z,27.2153,-90.2890,1342.0,4.3,11113222
BP,ioos:station:wmo:42369:4,2021-08-02T04:40:00Z,27.2152,-90.2890,1342.0,4.3,11113222
BP,ioos:station:wmo:42369:4,2021-08-02T05:00:00Z,27.2152,-90.2891,1342.0,4.3,11113222
BP,ioos:station:wmo:42369:4,2021-08-02T05:20:00Z,27.2152,-90.2891,1342.0,4.3,11113222
BP,ioos:station:wmo:42369:4,2021-08-02T05:40:00Z,27.2152,-90.2891,1342.0,4.3,11113222
BP,ioos:station:wmo:42369:4,2021-08-02T06:00:00Z,27.2152,-90.2891,1342.0,4.3,11113222
BP,ioos:station:wmo:42369:4,2021-08-02T06:20:00Z,27.2152,-90.2891,1342.0,4.3,11113222
BP,ioos:station:wmo:42369:4,2021-08-02T06:40:00Z,27.2152,-90.2891,1342.0,4.3,11113222
BP,ioos:station:wmo:42369:4,2021-08-02T07:00:00Z,27.2152,-90.2891,1342.0,4.3,11113222
BP,ioos:station:wmo:42369:4,2021-08-02T07:20:00Z,27.2152,-90.2891,1342.0,4.3,11113222
BP,ioos:station:wmo:42369:4,2021-08-02T07:40:00Z,27.2152,-90.2891,1342.0,4.3,11113222
BP,ioos:station:wmo:42369:4,2021-08-02T08:00:00Z,27.2152,-90.2891,1342.0,4.3,11113222
BP,ioos:station:wmo:42369:4,2021-08-02T08:20:00Z,27.2152,-90.2892,1342.0,4.3,11113222
BP,ioos:station:wmo:42369:4,2021-08-02T08:40:00Z,27.2152,-90.2892,1342.0,4.3,11113222
BP,ioos:station:wmo:42369:4,2021-08-02T09:00:00Z,27.2152,-90.2892,1342.0,4.3,11113222
BP,ioos:station:wmo:42369:4,2021-08-02T09:20:00Z,27.2152,-90.2892,1342.0,4.3,11113222
BP,ioos:station:wmo:42369:4,2021-08-02T09:40:00Z,27.2152,-90.2892,1342.0,4.3,11113222
BP,ioos:station:wmo:42369:4,2021-08-02T10:00:00Z,27.2152,-90.2892,1342.0,4.3,11113222
BP,ioos:station:wmo:42369:4,2021-08-02T10:20:00Z,27.2153,-90.2890,1342.0,4.3,11113222
BP,ioos:station:wmo:42369:4,2021-08-02T10:40:00Z,27.2153,-90.2889,1342.0,4.3,11113222
BP,ioos:station:wmo:42369:4,2021-08-02T11:00:00Z,27.2154,-90.2888,1342.0,4.3,11113222
BP,ioos:station:wmo:42369:4,2021-08-02T11:20:00Z,27.2155,-90.2886,1342.0,4.3,11113222
BP,ioos:station:wmo:42369:4,2021-08-02T11:40:00Z,27.2155,-90.2886,1342.0,4.3,11113222
BP,ioos:station:wmo:42369:4,2021-08-02T12:00:00Z,27.2155,-90.2886,1342.0,4.3,11113222
BP,ioos:station:wmo:42369:4,2021-08-02T12:20:00Z,27.2157,-90.2884,1342.0,4.3,11113222
BP,ioos:station:wmo:42369:4,2021-08-02T12:40:00Z,27.2158,-90.2883,1342.0,4.3,11113222
BP,ioos:station:wmo:42369:4,2021-08-02T13:00:00Z,27.2158,-90.2882,1342.0,4.3,11113222
BP,ioos:station:wmo:42369:4,2021-08-02T13:20:00Z,27.2158,-90.2882,1342.0,4.3,11113222
BP,ioos:station:wmo:42369:4,2021-08-02T13:40:00Z,27.2157,-90.2883,1342.0,4.3,11113222
BP,ioos:station:wmo:42369:4,2021-08-02T14:00:00Z,27.2158,-90.2882,1342.0,4.3,11113222
BP,ioos:station:wmo:42369:4,2021-08-02T14:20:00Z,27.2158,-90.2881,1342.0,4.3,11113222
BP,ioos:station:wmo:42369:4,2021-08-02T14:40:00Z,27.2158,-90.2881,1342.0,4.3,11113222
BP,ioos:station:wmo:42369:4,2021-08-02T15:00:00Z,27.2158,-90.2881,1342.0,4.3,11113222
BP,ioos:station:wmo:42369:4,2021-08-02T15:20:00Z,27.2153,-90.2883,1342.0,4.3,11113222
BP,ioos:station:wmo:42369:4,2021-08-02T15:40:00Z,27.2153,-90.2885,1342.0,4.3,11113222
BP,ioos:station:wmo:42369:4,2021-08-02T16:00:00Z,27.2153,-90.2885,1342.0,4.3,11113222
BP,ioos:station:wmo:42369:4,2021-08-02T16:20:00Z,27.2152,-90.2885,1342.0,4.3,11113222
BP,ioos:station:wmo:42369:4,2021-08-02T16:40:00Z,27.2152,-90.2885,1342.0,4.2,11113222
BP,ioos:station:wmo:42369:4,2021-08-02T17:00:00Z,27.2153,-90.2884,1342.0,4.2,11113222
BP,ioos:station:wmo:42369:4,2021-08-02T17:20:00Z,27.2153,-90.2884,1342.0,4.3,11113222
BP,ioos:station:wmo:42369:4,2021-08-02T17:40:00Z,27.2154,-90.2881,1342.0,4.2,11113222
BP,ioos:station:wmo:42369:4,2021-08-02T18:00:00Z,27.2154,-90.2881,1342.0,4.2,11113222
BP,ioos:station:wmo:42369:4,2021-08-02T18:20:00Z,27.2154,-90.2881,1342.0,4.2,11113222
BP,ioos:station:wmo:42369:4,2021-08-02T18:40:00Z,27.2153,-90.2881,1342.0,4.2,11113222
BP,ioos:station:wmo:42369:4,2021-08-02T19:40:00Z,27.2152,-90.2881,1342.0,4.2,11113222
BP,ioos:station:wmo:42369:4,2021-08-02T20:00:00Z,27.2152,-90.2881,1342.0,4.2,11113222
BP,ioos:station:wmo:42369:4,2021-08-02T20:20:00Z,27.2152,-90.2881,1342.0,4.2,11113222
BP,ioos:station:wmo:42369:4,2021-08-02T20:40:00Z,27.2150,-90.2882,1342.0,4.2,11113222
BP,ioos:station:wmo:42369:4,2021-08-02T21:00:00Z,27.2150,-90.2882,1342.0,4.2,11113222
BP,ioos:station:wmo:42369:4,2021-08-02T21:20:00Z,27.2150,-90.2882,1342.0,4.2,11113222
BP,ioos:station:wmo:42369:4,2021-08-02T21:40:00Z,27.2150,-90.2882,1342.0,4.2,11113222
BP,ioos:station:wmo:42369:4,2021-08-02T22:00:00Z,27.2150,-90.2882,1342.0,4.2,11113222
BP,ioos:station:wmo:42369:4,2021-08-02T22:20:00Z,27.2150,-90.2882,1342.0,4.2,11113222
BP,ioos:station:wmo:42369:4,2021-08-02T22:40:00Z,27.2149,-90.2883,1342.0,4.2,11113222
BP,ioos:station:wmo:42369:4,2021-08-02T23:00:00Z,27.2149,-90.2883,1342.0,4.2,11113222
BP,ioos:station:wmo:42369:4,2021-08-02T23:20:00Z,27.2148,-90.2884,1342.0,4.2,11113222
BP,ioos:station:wmo:42369:4,2021-08-02T23:40:00Z,27.2148,-90.2884,1342.0,4.2,11113222
BP,ioos:station:wmo:42369:4,2021-08-03T00:00:00Z,27.2148,-90.2884,1342.0,4.2,11113222
BP,ioos:station:wmo:42369:4,2021-08-03T00:20:00Z,27.2148,-90.2884,1342.0,4.2,11113222
BP,ioos:station:wmo:42369:4,2021-08-03T00:40:00Z,27.2148,-90.2884,1342.0,4.2,11113222
BP,ioos:station:wmo:42369:4,2021-08-03T01:00:00Z,27.2148,-90.2884,1342.0,4.2,11113222
BP,ioos:station:wmo:42369:4,2021-08-03T01:20:00Z,27.2148,-90.2884,1342.0,4.2,11113222
BP,ioos:station:wmo:42369:4,2021-08-03T01:40:00Z,27.2148,-90.2884,1342.0,4.2,11113222
BP,ioos:station:wmo:42369:4,2021-08-03T02:00:00Z,27.2148,-90.2884,1342.0,4.2,11113222
BP,ioos:station:wmo:42369:4,2021-08-03T02:20:00Z,27.2148,-90.2884,1342.0,4.2,11113222
BP,ioos:station:wmo:42369:4,2021-08-03T02:40:00Z,27.2148,-90.2884,1342.0,4.2,11113222
BP,ioos:station:wmo:42369:4,2021-08-03T03:00:00Z,27.2147,-90.2886,1342.0,4.2,11113222
BP,ioos:station:wmo:42369:4,2021-08-03T03:20:00Z,27.2147,-90.2886,1342.0,4.2,11113222
BP,ioos:station:wmo:42369:4,2021-08-03T03:40:00Z,27.2146,-90.2886,1342.0,4.2,11113222
BP,ioos:station:wmo:42369:4,2021-08-03T04:00:00Z,27.2146,-90.2887,1342.0,4.2,11113222
BP,ioos:station:wmo:42369:4,2021-08-03T04:20:00Z,27.2146,-90.2887,1342.0,4.2,11113222
BP,ioos:station:wmo:42369:4,2021-08-03T04:40:00Z,27.2144,-90.2887,1342.0,4.2,11113222
BP,ioos:station:wmo:42369:4,2021-08-03T05:00:00Z,27.2144,-90.2886,1342.0,4.2,11113222
BP,ioos:station:wmo:42369:4,2021-08-03T05:20:00Z,27.2144,-90.2884,1342.0,4.2,11113222
BP,ioos:station:wmo:42369:4,2021-08-03T05:40:00Z,27.2144,-90.2884,1342.0,4.2,11113222
BP,ioos:station:wmo:42369:4,2021-08-03T06:00:00Z,27.2144,-90.2884,1342.0,4.2,11113222
BP,ioos:station:wmo:42369:4,2021-08-03T06:20:00Z,27.2144,-90.2884,1342.0,4.2,11113222
BP,ioos:station:wmo:42369:4,2021-08-03T06:40:00Z,27.2143,-90.2886,1342.0,4.2,11113222
BP,ioos:station:wmo:42369:4,2021-08-03T07:00:00Z,27.2143,-90.2886,1342.0,4.2,11113222
BP,ioos:station:wmo:42369:4,2021-08-03T07:20:00Z,27.2143,-90.2886,1342.0,4.2,11113222
BP,ioos:station:wmo:42369:4,2021-08-03T07:40:00Z,27.2141,-90.2887,1342.0,4.2,11113222
BP,ioos:station:wmo:42369:4,2021-08-03T08:00:00Z,27.2140,-90.2888,1342.0,4.2,11113222
BP,ioos:station:wmo:42369:4,2021-08-03T08:20:00Z,27.2139,-90.2889,1342.0,4.2,11113222
BP,ioos:station:wmo:42369:4,2021-08-03T08:40:00Z,27.2139,-90.2889,1342.0,4.2,11113222
BP,ioos:station:wmo:42369:4,2021-08-03T09:00:00Z,27.2139,-90.2889,1342.0,4.2,11113222
BP,ioos:station:wmo:42369:4,2021-08-03T09:20:00Z,27.2140,-90.2886,1342.0,4.2,11113222
BP,ioos:station:wmo:42369:4,2021-08-03T09:40:00Z,27.2140,-90.2886,1342.0,4.2,11113222
BP,ioos:station:wmo:42369:4,2021-08-03T10:00:00Z,27.2140,-90.2886,1342.0,4.2,11113222
BP,ioos:station:wmo:42369:4,2021-08-03T10:20:00Z,27.2139,-90.2889,1342.0,4.2,11113222
BP,ioos:station:wmo:42369:4,2021-08-03T10:40:00Z,27.2139,-90.2889,1342.0,4.2,11113222
BP,ioos:station:wmo:42369:4,2021-08-03T11:00:00Z,27.2138,-90.2886,1342.0,4.2,11113222
BP,ioos:station:wmo:42369:4,2021-08-03T11:20:00Z,27.2138,-90.2887,1342.0,4.2,11113222
BP,ioos:station:wmo:42369:4,2021-08-03T11:40:00Z,27.2138,-90.2886,1342.0,4.2,11113222
BP,ioos:station:wmo:42369:4,2021-08-03T12:00:00Z,27.2138,-90.2886,1342.0,4.2,11113222
BP,ioos:station:wmo:42369:4,2021-08-03T12:20:00Z,27.2138,-90.2886,1342.0,4.2,11113222
BP,ioos:station:wmo:42369:4,2021-08-03T12:40:00Z,27.2136,-90.2883,1342.0,4.2,11113222
BP,ioos:station:wmo:42369:4,2021-08-03T13:00:00Z,27.2136,-90.2883,1342.0,4.2,11113222
BP,ioos:station:wmo:42369:4,2021-08-03T13:20:00Z,27.2136,-90.2883,1342.0,4.2,11113222
BP,ioos:station:wmo:42369:4,2021-08-03T13:40:00Z,27.2135,-90.2882,1342.0,4.2,11113222
BP,ioos:station:wmo:42369:4,2021-08-03T14:00:00Z,27.2135,-90.2882,1342.0,4.2,11113222
BP,ioos:station:wmo:42369:4,2021-08-03T14:20:00Z,27.2135,-90.2882,1342.0,4.2,11113222
BP,ioos:station:wmo:42369:4,2021-08-03T14:40:00Z,27.2134,-90.2879,1342.0,4.2,11113222
BP,ioos:station:wmo:42369:4,2021-08-03T15:00:00Z,27.2134,-90.2879,1342.0,4.2,11113222
BP,ioos:station:wmo:42369:4,2021-08-03T15:20:00Z,27.2134,-90.2879,1342.0,4.2,11113222
BP,ioos:station:wmo:42369:4,2021-08-03T15:40:00Z,27.2134,-90.2877,1342.0,4.2,11113222
BP,ioos:station:wmo:42369:4,2021-08-03T16:00:00Z,27.2134,-90.2877,1342.0,4.2,11113222
BP,ioos:station:wmo:42369:4,2021-08-03T16:20:00Z,27.2134,-90.2877,1342.0,4.2,11113222
BP,ioos:station:wmo:42369:4,2021-08-03T16:40:00Z,27.2135,-90.2873,1342.0,4.2,11113222
BP,ioos:station:wmo:42369:4,2021-08-03T17:00:00Z,27.2135,-90.2873,1342.0,4.2,11113222
BP,ioos:station:wmo:42369:4,2021-08-03T17:20:00Z,27.2135,-90.2873,1342.0,4.2,11113222
BP,ioos:station:wmo:42369:4,2021-08-03T17:40:00Z,27.2137,-90.2871,1342.0,4.2,11113222
BP,ioos:station:wmo:42369:4,2021-08-03T18:00:00Z,27.2137,-90.2871,1342.0,4.2,11113222
BP,ioos:station:wmo:42369:4,2021-08-03T18:20:00Z,27.2136,-90.2870,1342.0,4.2,11113222
BP,ioos:station:wmo:42369:4,2021-08-03T18:40:00Z,27.2136,-90.2870,1342.0,4.2,11113222
BP,ioos:station:wmo:42369:4,2021-08-03T19:00:00Z,27.2136,-90.2870,1342.0,4.2,11113222
BP,ioos:station:wmo:42369:4,2021-08-03T19:20:00Z,27.2136,-90.2870,1342.0,4.2,11113222
BP,ioos:station:wmo:42369:4,2021-08-03T19:40:00Z,27.2135,-90.2873,1342.0,4.2,11113222
BP,ioos:station:wmo:42369:4,2021-08-03T20:00:00Z,27.2134,-90.2875,1342.0,4.2,11113222
BP,ioos:station:wmo:42369:4,2021-08-03T20:20:00Z,27.2134,-90.2875,1342.0,4.2,11113222
BP,ioos:station:wmo:42369:4,2021-08-03T20:40:00Z,27.2134,-90.2875,1342.0,4.2,11113222
BP,ioos:station:wmo:42369:4,2021-08-03T21:00:00Z,27.2131,-90.2876,1342.0,4.2,11113222
BP,ioos:station:wmo:42369:4,2021-08-03T21:20:00Z,27.2131,-90.2876,1342.0,4.2,11113222
BP,ioos:station:wmo:42369:4,2021-08-03T21:40:00Z,27.2130,-90.2877,1342.0,4.2,11113222
BP,ioos:station:wmo:42369:4,2021-08-03T22:00:00Z,27.2129,-90.2878,1342.0,4.2,11113222
BP,ioos:station:wmo:42369:4,2021-08-03T22:20:00Z,27.2129,-90.2878,1342.0,4.2,11113222
BP,ioos:station:wmo:42369:4,2021-08-03T22:40:00Z,27.2128,-90.2879,1342.0,4.2,11113222
BP,ioos:station:wmo:42369:4,2021-08-03T23:00:00Z,27.2128,-90.2879,1342.0,4.2,11113222
BP,ioos:station:wmo:42369:4,2021-08-03T23:20:00Z,27.2125,-90.2883,1342.0,4.2,11113222
BP,ioos:station:wmo:42369:4,2021-08-03T23:40:00Z,27.2124,-90.2884,1342.0,4.2,11113222
BP,ioos:station:wmo:42369:4,2021-08-04T00:00:00Z,27.2124,-90.2884,1342.0,4.2,11113222
BP,ioos:station:wmo:42369:4,2021-08-04T00:20:00Z,27.2124,-90.2884,1342.0,4.2,11113222
BP,ioos:station:wmo:42369:4,2021-08-04T00:40:00Z,27.2123,-90.2882,1342.0,4.2,11113222
BP,ioos:station:wmo:42369:4,2021-08-04T01:00:00Z,27.2123,-90.2882,1342.0,4.2,11113222
BP,ioos:station:wmo:42369:4,2021-08-04T01:20:00Z,27.2123,-90.2882,1342.0,4.2,11113222
BP,ioos:station:wmo:42369:4,2021-08-04T01:40:00Z,27.2123,-90.2882,1342.0,4.2,11113222
BP,ioos:station:wmo:42369:4,2021-08-04T02:00:00Z,27.2123,-90.2882,1342.0,4.2,11113222
BP,ioos:station:wmo:42369:4,2021-08-04T02:20:00Z,27.2121,-90.2883,1342.0,4.2,11113222
BP,ioos:station:wmo:42369:4,2021-08-04T02:40:00Z,27.2120,-90.2884,1342.0,4.2,11113222
BP,ioos:station:wmo:42369:4,2021-08-04T03:00:00Z,27.2120,-90.2884,1342.0,4.2,11113222
BP,ioos:station:wmo:42369:4,2021-08-04T03:20:00Z,27.2119,-90.2886,1342.0,4.2,11113222
BP,ioos:station:wmo:42369:4,2021-08-04T03:40:00Z,27.2119,-90.2886,1342.0,4.2,11113222
BP,ioos:station:wmo:42369:4,2021-08-04T04:00:00Z,27.2118,-90.2887,1342.0,4.2,11113222
BP,ioos:station:wmo:42369:4,2021-08-04T04:20:00Z,27.2117,-90.2887,1342.0,4.2,11113222
BP,ioos:station:wmo:42369:4,2021-08-04T04:40:00Z,27.2118,-90.2886,1342.0,4.2,11113222
BP,ioos:station:wmo:42369:4,2021-08-04T05:00:00Z,27.2119,-90.2886,1342.0,4.2,11113222
BP,ioos:station:wmo:42369:4,2021-08-04T05:20:00Z,27.2119,-90.2886,1342.0,4.2,11113222
BP,ioos:station:wmo:42369:4,2021-08-04T05:40:00Z,27.2119,-90.2886,1342.0,4.2,11113222
BP,ioos:station:wmo:42369:4,2021-08-04T06:00:00Z,27.2119,-90.2886,1342.0,4.2,11113222
BP,ioos:station:wmo:42369:4,2021-08-04T06:20:00Z,27.2119,-90.2886,1342.0,4.2,11113222
BP,ioos:station:wmo:42369:4,2021-08-04T06:40:00Z,27.2127,-90.2879,1342.0,4.2,11113222
BP,ioos:station:wmo:42369:4,2021-08-04T07:00:00Z,27.2128,-90.2878,1342.0,4.2,11113222
BP,ioos:station:wmo:42369:4,2021-08-04T07:20:00Z,27.2128,-90.2877,1342.0,4.2,11113222
BP,ioos:station:wmo:42369:4,2021-08-04T07:40:00Z,27.2128,-90.2877,1342.0,4.2,11113222
BP,ioos:station:wmo:42369:4,2021-08-04T08:00:00Z,27.2129,-90.2875,1342.0,4.2,11113222
BP,ioos:station:wmo:42369:4,2021-08-04T08:20:00Z,27.2130,-90.2875,1342.0,4.2,11113222
BP,ioos:station:wmo:42369:4,2021-08-04T08:40:00Z,27.2130,-90.2875,1342.0,4.2,11113222
BP,ioos:station:wmo:42369:4,2021-08-04T09:00:00Z,27.2128,-90.2875,1342.0,4.2,11113222
BP,ioos:station:wmo:42369:4,2021-08-04T09:20:00Z,27.2128,-90.2875,1342.0,4.2,11113222
BP,ioos:station:wmo:42369:4,2021-08-04T09:40:00Z,27.2128,-90.2875,1342.0,4.2,11113222
BP,ioos:station:wmo:42369:4,2021-08-04T10:00:00Z,27.2128,-90.2875,1342.0,4.2,11113222
BP,ioos:station:wmo:42369:4,2021-08-04T10:20:00Z,27.2130,-90.2873,1342.0,4.2,11113222
BP,ioos:station:wmo:42369:4,2021-08-04T10:40:00Z,27.2131,-90.2871,1342.0,4.2,11113222
BP,ioos:station:wmo:42369:4,2021-08-04T11:00:00Z,27.2131,-90.2870,1342.0,4.2,11113222
BP,ioos:station:wmo:42369:4,2021-08-04T11:20:00Z,27.2131,-90.2870,1342.0,4.2,11113222
BP,ioos:station:wmo:42369:4,2021-08-04T11:40:00Z,27.2133,-90.2850,1342.0,4.2,11113222
BP,ioos:station:wmo:42369:4,2021-08-04T12:00:00Z,27.2133,-90.2850,1342.0,4.2,11113222
BP,ioos:station:wmo:42369:4,2021-08-04T12:20:00Z,27.2133,-90.2850,1342.0,4.2,11113222
BP,ioos:station:wmo:42369:4,2021-08-04T12:40:00Z,27.2135,-90.2841,1342.0,4.2,11113222
BP,ioos:station:wmo:42369:4,2021-08-04T13:00:00Z,27.2136,-90.2839,1342.0,4.2,11113222
BP,ioos:station:wmo:42369:4,2021-08-04T13:20:00Z,27.2136,-90.2839,1342.0,4.2,11113222
BP,ioos:station:wmo:42369:4,2021-08-04T13:40:00Z,27.2136,-90.2837,1342.0,4.2,11113222
BP,ioos:station:wmo:42369:4,2021-08-04T14:00:00Z,27.2136,-90.2836,1342.0,4.2,11113222
BP,ioos:station:wmo:42369:4,2021-08-04T14:20:00Z,27.2136,-90.2836,1342.0,4.2,11113222
BP,ioos:station:wmo:42369:4,2021-08-04T15:00:00Z,27.2136,-90.2836,1342.0,4.2,11113222
BP,ioos:station:wmo:42369:4,2021-08-04T15:20:00Z,27.2136,-90.2835,1342.0,4.2,11113222
BP,ioos:station:wmo:42369:4,2021-08-04T15:40:00Z,27.2136,-90.2834,1342.0,4.2,11113222
BP,ioos:station:wmo:42369:4,2021-08-04T16:00:00Z,27.2136,-90.2834,1342.0,4.2,11113222
BP,ioos:station:wmo:42369:4,2021-08-04T16:20:00Z,27.2136,-90.2834,1342.0,4.2,11113222
BP,ioos:station:wmo:42369:4,2021-08-04T16:40:00Z,27.2136,-90.2832,1342.0,4.2,11113222
BP,ioos:station:wmo:42369:4,2021-08-04T17:00:00Z,27.2136,-90.2832,1342.0,4.2,11113222
BP,ioos:station:wmo:42369:4,2021-08-04T17:20:00Z,27.2136,-90.2829,1342.0,4.2,11113222
BP,ioos:station:wmo:42369:4,2021-08-04T17:40:00Z,27.2136,-90.2829,1342.0,4.2,11113222
BP,ioos:station:wmo:42369:4,2021-08-04T18:00:00Z,27.2136,-90.2829,1342.0,4.2,11113222
BP,ioos:station:wmo:42369:4,2021-08-04T18:20:00Z,27.2136,-90.2828,1342.0,4.2,11113222
BP,ioos:station:wmo:42369:4,2021-08-04T18:40:00Z,27.2136,-90.2828,1342.0,4.2,11113222
BP,ioos:station:wmo:42369:4,2021-08-04T19:00:00Z,27.2137,-90.2826,1342.0,4.2,11113222
BP,ioos:station:wmo:42369:4,2021-08-04T19:20:00Z,27.2137,-90.2826,1342.0,4.2,11113222
BP,ioos:station:wmo:42369:4,2021-08-04T19:40:00Z,27.2137,-90.2825,1342.0,4.2,11113222
BP,ioos:station:wmo:42369:4,2021-08-04T20:00:00Z,27.2133,-90.2850,1342.0,4.2,11113222